Total_Precipitation_Accumulation
0.11 0.20 0.44 0.54 0.59 0.57 0.52 0.49 0.45 0.44 0.44 0.45 0.47 0.46 0.41 0.39 0.37 0.35 0.38 0.42 0.48 0.54 0.60 0.63 0.62 0.57 0.49 0.41 0.27 0.17 0.15 0.17 0.13 0.10 0.09 0.12 0.17 0.18 0.15 0.14 0.16 0.21 0.29
0.10 0.19 0.39 0.53 0.65 0.67 0.62 0.54 0.46 0.42 0.44 0.52 0.55 0.52 0.47 0.43 0.43 0.40 0.48 0.51 0.56 0.57 0.59 0.63 0.63 0.53 0.41 0.30 0.20 0.16 0.15 0.08 0.05 0.03 0.02 0.05 0.10 0.14 0.13 0.12 0.16 0.23 0.29
0.14 0.21 0.38 0.53 0.66 0.67 0.61 0.54 0.45 0.42 0.44 0.55 0.62 0.56 0.52 0.49 0.48 0.46 0.50 0.55 0.61 0.61 0.52 0.50 0.48 0.37 0.29 0.19 0.14 0.13 0.11 0.06 0.04 0.03 0.03 0.07 0.12 0.18 0.19 0.16 0.21 0.29 0.30
0.20 0.26 0.39 0.58 0.74 0.75 0.67 0.57 0.50 0.49 0.52 0.59 0.71 0.71 0.64 0.59 0.57 0.57 0.54 0.54 0.58 0.54 0.47 0.40 0.34 0.24 0.19 0.15 0.12 0.10 0.08 0.05 0.04 0.03 0.06 0.10 0.13 0.25 0.27 0.25 0.27 0.32 0.28
0.28 0.33 0.46 0.64 0.83 0.83 0.73 0.64 0.57 0.58 0.61 0.66 0.73 0.82 0.81 0.70 0.68 0.66 0.61 0.53 0.54 0.48 0.39 0.31 0.25 0.17 0.12 0.11 0.11 0.10 0.09 0.07 0.04 0.04 0.08 0.12 0.17 0.31 0.31 0.28 0.30 0.33 0.28
0.36 0.45 0.57 0.72 0.91 0.98 0.83 0.72 0.65 0.65 0.70 0.76 0.83 0.89 0.91 0.87 0.86 0.80 0.63 0.52 0.47 0.41 0.33 0.27 0.23 0.15 0.10 0.10 0.09 0.09 0.10 0.09 0.05 0.05 0.06 0.10 0.17 0.32 0.35 0.30 0.31 0.35 0.34
0.40 0.58 0.75 0.89 1.03 1.17 1.05 0.91 0.82 0.79 0.80 0.85 0.90 0.91 0.95 0.96 0.98 0.89 0.65 0.50 0.43 0.39 0.34 0.26 0.22 0.16 0.12 0.12 0.10 0.08 0.09 0.08 0.07 0.08 0.07 0.09 0.17 0.34 0.39 0.37 0.39 0.41 0.38
0.51 0.67 0.92 1.20 1.26 1.37 1.33 1.11 0.98 0.91 0.91 0.95 0.97 0.97 0.99 1.02 1.01 0.97 0.71 0.52 0.43 0.41 0.38 0.31 0.24 0.20 0.15 0.14 0.12 0.10 0.10 0.07 0.06 0.07 0.07 0.08 0.15 0.26 0.32 0.32 0.34 0.37 0.34
0.79 0.81 0.96 1.22 1.39 1.48 1.51 1.26 1.15 1.03 0.95 0.98 1.04 1.06 0.97 0.92 0.93 0.90 0.71 0.56 0.49 0.50 0.47 0.41 0.33 0.27 0.20 0.17 0.15 0.11 0.08 0.06 0.05 0.07 0.06 0.08 0.13 0.23 0.28 0.27 0.30 0.33 0.34
1.18 1.14 1.12 1.23 1.35 1.53 1.60 1.31 1.15 1.05 1.00 1.00 0.99 0.90 0.77 0.74 0.77 0.78 0.66 0.56 0.51 0.54 0.52 0.44 0.38 0.31 0.26 0.21 0.16 0.12 0.08 0.06 0.06 0.06 0.07 0.09 0.15 0.24 0.28 0.29 0.29 0.32 0.37
1.54 1.55 1.46 1.39 1.34 1.43 1.57 1.40 1.25 1.13 1.02 0.98 0.96 0.84 0.74 0.72 0.72 0.65 0.54 0.50 0.50 0.54 0.56 0.49 0.41 0.35 0.26 0.19 0.16 0.13 0.11 0.09 0.09 0.10 0.11 0.12 0.18 0.25 0.31 0.35 0.36 0.37 0.39
1.64 1.61 1.65 1.61 1.49 1.49 1.54 1.49 1.39 1.21 1.09 0.97 0.88 0.83 0.80 0.76 0.72 0.63 0.57 0.52 0.55 0.55 0.62 0.60 0.49 0.39 0.26 0.19 0.18 0.16 0.14 0.11 0.12 0.13 0.14 0.16 0.23 0.33 0.39 0.40 0.35 0.36 0.40
1.92 1.77 1.72 1.76 1.77 1.67 1.62 1.53 1.41 1.20 1.11 1.09 0.99 0.87 0.84 0.90 0.87 0.82 0.69 0.59 0.60 0.58 0.61 0.60 0.55 0.41 0.27 0.22 0.20 0.16 0.16 0.17 0.15 0.15 0.16 0.19 0.27 0.39 0.43 0.41 0.34 0.33 0.36
2.30 2.13 2.04 2.07 2.02 1.88 1.78 1.65 1.51 1.27 1.09 1.06 1.04 1.01 0.95 0.92 0.82 0.78 0.73 0.61 0.57 0.56 0.58 0.59 0.51 0.44 0.38 0.31 0.28 0.25 0.22 0.20 0.19 0.20 0.20 0.21 0.23 0.33 0.44 0.47 0.42 0.41 0.41
2.44 2.46 2.36 2.35 2.34 2.16 2.04 1.87 1.58 1.40 1.18 1.04 1.02 1.05 0.98 0.89 0.82 0.76 0.73 0.71 0.62 0.59 0.58 0.65 0.65 0.57 0.50 0.43 0.36 0.31 0.28 0.26 0.25 0.25 0.26 0.27 0.25 0.29 0.41 0.53 0.57 0.59 0.62
2.42 2.60 2.66 2.62 2.55 2.41 2.20 2.02 1.73 1.55 1.35 1.23 1.14 1.08 1.01 0.96 0.93 0.88 0.77 0.72 0.67 0.63 0.62 0.71 0.76 0.68 0.62 0.52 0.44 0.37 0.34 0.31 0.27 0.26 0.26 0.27 0.25 0.27 0.36 0.52 0.66 0.77 0.83
2.37 2.61 2.79 2.89 2.98 2.73 2.48 2.24 1.98 1.78 1.60 1.44 1.28 1.15 1.03 0.97 1.02 1.00 0.93 0.78 0.71 0.74 0.74 0.77 0.84 0.86 0.79 0.66 0.56 0.49 0.42 0.38 0.32 0.29 0.30 0.27 0.24 0.22 0.29 0.46 0.63 0.74 0.83
2.37 2.50 2.65 2.68 2.93 3.02 2.86 2.57 2.18 1.94 1.75 1.61 1.47 1.32 1.20 1.06 1.07 1.09 1.04 0.98 0.89 0.88 0.89 0.87 0.82 0.77 0.73 0.66 0.59 0.55 0.51 0.47 0.41 0.39 0.39 0.33 0.27 0.21 0.23 0.33 0.45 0.56 0.67
2.39 2.46 2.63 2.63 2.72 2.91 3.04 2.88 2.58 2.31 2.04 1.86 1.75 1.56 1.45 1.33 1.25 1.25 1.16 1.13 1.15 1.08 1.00 0.96 0.91 0.82 0.75 0.69 0.65 0.65 0.63 0.57 0.51 0.47 0.43 0.36 0.34 0.30 0.29 0.29 0.31 0.38 0.48
2.39 2.57 2.69 2.83 2.87 3.04 3.32 3.31 3.02 2.74 2.50 2.30 2.08 1.95 1.80 1.65 1.53 1.43 1.37 1.32 1.33 1.27 1.16 1.08 1.01 0.94 0.84 0.83 0.81 0.73 0.68 0.63 0.59 0.53 0.48 0.44 0.41 0.40 0.42 0.41 0.41 0.41 0.44
2.08 2.35 2.42 2.65 2.85 3.03 3.13 3.07 2.88 2.67 2.53 2.45 2.39 2.32 2.14 1.95 1.82 1.66 1.52 1.49 1.48 1.41 1.29 1.23 1.19 1.08 1.02 1.04 1.00 0.82 0.70 0.63 0.59 0.54 0.54 0.54 0.48 0.45 0.46 0.50 0.54 0.53 0.45
1.68 1.87 2.02 2.20 2.44 2.66 2.79 2.78 2.81 2.84 2.69 2.49 2.43 2.40 2.34 2.24 2.09 1.89 1.70 1.63 1.59 1.57 1.43 1.34 1.36 1.32 1.22 1.23 1.25 1.17 0.97 0.79 0.62 0.56 0.56 0.55 0.53 0.53 0.49 0.48 0.47 0.50 0.52
1.36 1.55 1.69 1.85 2.01 2.13 2.50 2.77 2.80 2.87 2.81 2.52 2.27 2.13 2.22 2.32 2.31 2.14 1.96 1.89 1.80 1.77 1.68 1.57 1.51 1.48 1.45 1.40 1.43 1.56 1.34 1.02 0.75 0.63 0.62 0.60 0.57 0.59 0.60 0.56 0.52 0.50 0.51
1.07 1.27 1.48 1.66 1.81 1.85 2.12 2.40 2.44 2.32 2.28 2.17 2.11 2.15 2.20 2.26 2.32 2.31 2.20 2.04 1.95 1.90 1.83 1.88 1.91 1.80 1.70 1.56 1.45 1.39 1.36 1.19 1.11 0.89 0.71 0.69 0.66 0.62 0.66 0.65 0.61 0.57 0.54
0.88 0.98 1.18 1.48 1.63 1.69 1.76 1.97 2.18 2.23 2.18 2.20 2.21 2.20 2.15 2.07 2.12 2.23 2.25 2.13 1.92 1.79 1.72 1.78 1.87 1.92 1.81 1.67 1.56 1.47 1.41 1.26 1.17 1.15 0.94 0.78 0.75 0.69 0.67 0.71 0.73 0.73 0.72
0.76 0.77 0.91 1.12 1.42 1.59 1.65 1.74 1.87 1.95 1.93 1.97 2.05 2.11 2.13 2.03 1.94 1.95 2.01 1.99 1.95 1.82 1.69 1.71 1.83 1.90 1.92 1.86 1.73 1.58 1.49 1.40 1.22 1.23 1.16 0.97 0.93 0.84 0.80 0.82 0.85 0.89 0.89